Regional Weather Roundup
Issued by NWS

Home | Current Version | Previous Version | Text Only | Print | Product List | Glossary On
Versions: 1 2 3 4 5 6 7 8 9 10 11 12 13 14 15 16 17 18 19 20 21 22 23 24 25 26 27 28 29 30 31 32 33 34 35 36 37 38 39 40 41 42 43 44 45 46 47 48 49 50
000
ASUS43 KMPX 171701
RWRMN
WEATHER ROUNDUP FOR MINNESOTA
NATIONAL WEATHER SERVICE TWIN CITIES/CHANHASSEN MN
1200 PM CDT THU APR 17 2014


NOTE: "FAIR" INDICATES FEW OR NO CLOUDS BELOW 12,000 FEET WITH NO
SIGNIFICANT WEATHER AND/OR OBSTRUCTIONS TO VISIBILITY. N/A MEANS
CURRENT SKY AND/OR WEATHER CONDITIONS ARE NOT AVAILABLE.

MNZ060>063-068>070-171800-
   Twin Cities Metro

CITY           SKY/WX    TMP DP  RH WIND       PRES   REMARKS
TWIN CITIES    CLOUDY    32  28  85 NW10      30.27S WCI  24
ST PAUL        CLOUDY    34  27  75 N12       30.28R WCI  25
CRYSTAL        CLOUDY    34  25  69 NW10      30.26S WCI  26
EDEN PRAIRIE   CLOUDY    33  27  78 NW10      30.27R WCI  25
LAKEVILLE      CLOUDY    32  28  86 NW12      30.27R WCI  23
SOUTH ST PAUL  CLOUDY    36  31  85 NW10      30.27S
LAKE ELMO      CLOUDY    32  30  93 N8        30.27R WCI  25
$$
MNZ001>005-007-008-013>017-022>024-027-028-171800-
   Northwest Minnesota

CITY           SKY/WX    TMP DP  RH WIND       PRES   REMARKS
BEMIDJI        SUNNY     37   6  27 N12G20    30.27F
HALLOCK        CLOUDY    36  12  38 W3        30.36F
ROSEAU         SUNNY     37   3  23 CALM      30.34S
WARROAD        SUNNY     30   7  37 NE5       30.35S WCI  25
THIEF RVR FALL SUNNY     36   7  30 NE3       30.33F
CROOKSTON      SUNNY     36  16  44 N8        30.35F
FOSSTON        SUNNY     37   9  30 NW7       30.31F
DETROIT LAKES  SUNNY     37  10  32 N10G16    30.29F
MOORHEAD       SUNNY     36  19  51 N6        30.34F
PARK RAPIDS    SUNNY     37   7  28 N12G18    30.26F
$$
MNZ006-009>011-018-025>026-171800-
   North Central Minnesota

CITY           SKY/WX    TMP DP  RH WIND       PRES   REMARKS
BAUDETTE       SUNNY     34  15  46 NW13      30.31S WCI  25
FLAG ISLAND    SUNNY     30  12  47 N7        30.34S WCI  23
INTL FALLS     CLOUDY    33  19  56 NE10      30.29S WCI  25
WASKISH        SUNNY     39  14  35 NE6G18    30.29S
BIG FORK       MOSUNNY   37  21  52 N10       30.26S
LONGVILLE      MOSUNNY   37  19  48 NW7       30.25S
GRAND RAPIDS   MOSUNNY   34  21  60 N12       30.24S WCI  25
CRANE LAKE     CLOUDY    30  25  80 N6        30.28S WCI  24
ORR            CLOUDY    30  19  64 N6        30.24R WCI  24
COOK           CLOUDY    30  21  69 NW6       30.25S WCI  24
$$
MNZ012-019>021-037-171800-
   Northeast Minnesota

CITY           SKY/WX    TMP DP  RH WIND       PRES   REMARKS
DULUTH         PTSUNNY   33  24  69 N9        30.20R WCI  25
ELY            FLURRIES  30  23  74 N7        30.21S WCI  23
HIBBING        CLOUDY    33  24  69 NW14      30.23R WCI  23
EVELETH        CLOUDY    32  25  74 N7        30.23S WCI  26
DULUTH HARBOR  CLOUDY    36  27  69 NW7       30.24R
TWO HARBORS    CLOUDY    36  23  60 NW8       30.18R
SILVER BAY     LGT SNOW  34  28  80 NW7       30.17R WCI  28
GRAND MARAIS     N/A     33  29  85 NE12G22   30.20R WCI  24
G MARAIS ARPRT CLOUDY    28  23  80 NE9       30.15R HAZE    WCI  20
$$
MNZ029>031-032-039>041-046>048-054>057-064-171800-
   West Central Minnesota

CITY           SKY/WX    TMP DP  RH WIND       PRES   REMARKS
FERGUS FALLS   SUNNY     37   9  30 N9G17     30.28F
WHEATON        SUNNY     39  19  45 N8        30.35S
MORRIS         SUNNY     36  21  55 N9        30.30S
ALEXANDRIA     SUNNY     33  20  58 N9        30.28F WCI  25
ELBOW LAKE     FAIR      35  16  46 N9        30.30S WCI  27
WADENA         SUNNY     34  14  44 N14       30.26F WCI  24
GLENWOOD       SUNNY     34  21  60 N10       30.28S WCI  26
APPLETON       SUNNY     36  25  64 NW8       30.33R
BENSON         SUNNY     34  21  60 N6        30.31S WCI  29
ORTONVILLE     SUNNY     32  18  55 N9        30.33S WCI  24
MADISON        SUNNY     36  25  64 NW9       30.33S
WILLMAR        FAIR      34  21  60 NW10      30.31R WCI  26
$$
MNZ033>034-036-042>043-049>051-058-059-171800-
   Central Minnesota

CITY           SKY/WX    TMP DP  RH WIND       PRES   REMARKS
ST CLOUD       SUNNY     35  23  61 N7        30.27S WCI  29
SAUK CENTRE    FAIR      33  21  60 N12       30.28S WCI  24
PAYNESVILLE    SUNNY     32  22  66 NW9       30.29S WCI  24
AITKIN         MOSUNNY   39  23  52 NW7       30.23S
PINE RIVER     SUNNY     36  21  55 N7        30.28F
BRAINERD       SUNNY     40  21  46 N10       30.26R
STAPLES        SUNNY     36  19  51 NW6       30.26F
LONG PRAIRIE   FAIR      32  21  64 NW9       30.27F WCI  24
LITTLE FALLS   SUNNY     34  21  60 W8        30.26S WCI  27
LITCHFIELD     SUNNY     34  25  69 NW8       30.29S WCI  27
BUFFALO        MOSUNNY   35  25  66 NW6       30.29S WCI  30
MAPLE LAKE     SUNNY     35  26  70 N6        30.28S WCI  30
$$
MNZ037-044-045-052-053-171800-
   East Central Minnesota

CITY           SKY/WX    TMP DP  RH WIND       PRES   REMARKS
PRINCETON      SUNNY     36  25  64 N9        30.27S
MORA           CLOUDY    36  23  60 N10       30.27R
CAMBRIDGE      CLOUDY    36  25  64 NW7       30.25R
RUSH CITY      CLOUDY    34  25  69 NW6       30.26R WCI  29
MOOSE LAKE     CLOUDY    34  25  69 NW10G16   30.22R WCI  26
HINCKLEY       CLOUDY    34  27  75 NW8       30.25R WCI  27
CLOQUET        CLOUDY    30  25  80 NW10G16   30.22R WCI  21
MCGREGOR       PTSUNNY   34  27  75 NW9       30.24S WCI  26
$$
MNZ071>073-080-081-089-090-097-098-171800-
   Southwest Minnesota

CITY           SKY/WX    TMP DP  RH WIND       PRES   REMARKS
MONTEVIDEO     SUNNY     37  25  60 N7        30.33S
GRANITE FALLS  SUNNY     32  22  67 NW8       30.34S WCI  24
CANBY          SUNNY     32  22  65 NW7       30.34S WCI  26
MARSHALL       SUNNY     30  19  64 N10       30.32S WCI  21
REDWOOD FALLS  SUNNY     31  22  69 NW8       30.32R WCI  23
OLIVIA         SUNNY     32  23  69 NW7       30.31R WCI  26
PIPESTONE      SUNNY     32  27  80 NE8       30.30S WCI  25
WINDOM         MOSUNNY   32  28  86 NW13      30.30S WCI  22
WORTHINGTON    PTSUNNY   32  23  69 N14       30.31S WCI  22
JACKSON        PTSUNNY   32  28  86 N8G17     30.30S WCI  25
TRACY          SUNNY     31  23  74 N9        30.32S WCI  23
SLAYTON        SUNNY     31  26  83 N10       30.32R WCI  22
$$
MNZ065>067-074>077-082>085-091>093-171800-
   South Central Minnesota

CITY           SKY/WX    TMP DP  RH WIND       PRES   REMARKS
MANKATO        CLOUDY    30  25  80 NW10G16   30.30S WCI  21
NEW ULM        SUNNY     32  28  86 NW8       30.30F WCI  25
ST JAMES       CLOUDY    34  28  80 NW12      30.31F WCI  25
FAIRMONT       CLOUDY    30  25  80 NW12G17   30.31F WCI  21
GLENCOE        PTSUNNY   33  25  71 NW8       30.28F WCI  27
FARIBAULT      CLOUDY    36  28  75 W8        30.27S
OWATONNA       CLOUDY    34  28  80 NW13      30.27R WCI  25
WASECA         CLOUDY    34  30  86 NW10      30.29S WCI  26
ALBERT LEA     CLOUDY    30  28  93 NW8       30.26S WCI  23
$$
MNZ078>079-086>088-094>096-171800-
   Southeast Minnesota

CITY           SKY/WX    TMP DP  RH WIND       PRES   REMARKS
ROCHESTER      CLOUDY    33  29  85 NW16      30.24R FOG     WCI  23
RED WING       CLOUDY    36  28  75 NW9       30.25R
STANTON        CLOUDY    35  30  80 NW13      30.25S WCI  27
DODGE CENTER   CLOUDY    34  30  86 NW13      30.24S WCI  25
WINONA         CLOUDY    37  32  81 NW13      30.24R
AUSTIN         CLOUDY    30  28  93 NW14      30.25S WCI  20
PRESTON        CLOUDY    36  32  85 NW16      30.22S
$$
ABBREVIATIONS USED IN REMARKS
   TC - TEMPERATURES IN CELSIUS
  WCI - WIND CHILL INDEX
   HX - HEAT INDEX
  VSB - VISIBILITY
$$


USA.gov is the U.S. government's official web portal to all federal, state and local government web resources and services.